{"data":{"norad_id":28371,"intl_designator":"2004-025F","name":"SAUDISAT 2","alt_names":[],"object_type":"PAYLOAD","status":"ACTIVE","operator":null,"country":"SAUD","launch_date":"2004-06-29","launch_site_code":"TYMSC","launch_vehicle":null,"mission":null,"orbit_class":"UNKNOWN","rcs_meters":0.265,"size_class":null,"mass_kg":null,"dimensions":null,"purposes":["tech_demo"],"wikipedia_slug":null,"has_3d_model":false,"image_url":null,"decayed_at":null,"tle_current":{"epoch":"2026-09-19T19:39:00.657504Z","epoch_age_seconds":73597,"freshness":"FRESH","line1":"1 28371U 04025F   26262.81875761  .00000152  00000+0  44885-4 0  9993","line2":"2 28371  98.5570 265.2755 0024873   8.9861 351.1776 14.56727729179529","mean_motion":14.56727729,"eccentricity":0.0024873,"inclination_deg":98.557,"raan_deg":265.2755,"arg_perigee_deg":8.9861,"mean_anomaly_deg":351.1776,"bstar":4.4885e-5,"rev_number":17952,"period_min":98.851691454279,"perigee_km":686.1448264715,"apogee_km":721.37442943692,"semimajor_km":7081.8966279542,"source":"CELESTRAK","updated_at":"2026-09-20T09:00:47.584164Z"}}}